Location: Eboldshausen
(51.7766°N, 10.0050°E)
Time: 05:16:11
(UTC+00:00)

Cosmos 2344 - Pass Details

Date: 15 November 2025
Orbit: 1197 x 3045 km, 63.3° (Epoch: 16 December)

Event Time Altitude Azimuth Distance (km) Brightness Sun altitude
Rises 16:38:42 0° 304° (NW) 4,112 6.9 -10.7°
Reaches altitude 10° 16:41:26 10° 311° (NW) 3,181 6.1 -11.1°
Maximum altitude 16:48:33 46° 24° (NNE) 1,761 4.1 -12.1°
Enters shadow 16:56:03 14° 94° (E) 3,498 5.3 -13.3°
